DRAGON CRS-15

Last updated on Sat Aug 04 2018 00:15:09 GMT+0000 (Coordinated Universal Time)

1 43522U 18055A 18214.64119063 .00000933 00000-0 21606-4 0 9995 2 43522 51.6422 147.1806 0005348 18.8252 42.1543 15.53789424125747

Satellite not in orbit

DRAGON CRS-15